SCP
0 0 0 0 0 0 0 -0 -0 -0 -0 -0 -0 -0 -0 -0 -0 -0 -0 -0 -0 0 -0 -0 -0 -0 0 0 -0 -0 -0 0 -0 -0 -0 -0 -0 -0 0 -0 -0 0 -0
-0 -0 0 0 0 -0 -0 -0 -0 -0 -0 -0 -0 -0 -0 -0 -0 -0 -0 -0 -0 -0 -0 -0 -0 -0 0 0 0 -0 -0 -0 -0 -0 -0 -0 0 -0 0 -0 -0 -0 0
-0 -0 -0 0 -0 -0 -0 -0 -0 -0 -0 -0 -0 -0 -0 -0 -0 0 -0 -0 -0 -0 -0 -0 -0 -0 -0 -0 -0 -0 -0 -0 -0 -0 -0 -0 -0 -0 -0 -0 -0 -0 -0
-0 -0 -0 -0 -0 -0 -0 -0 -0 -0 -0 -0 -0 -0 -0 -0 -0 -0 -0 -0 -0 0 -0 -0 -0 -0 -0 -0 0 -0 -0 0 -0 -0 -0 0 0 -0 0 -0 -0 -0 -0
-0 -0 -0 -0 -0 -0 -0 -0 -0 -0 -0 -0 -0 -0 -0 -0 -0 0 -0 -0 0 0 -0 -0 -0 -0 -0 0 0 0 0 -0 -0 0 -0 -0 -0 -0 -0 -0 -0 -0 -0
-0 -0 -0 -0 -0 -0 -0 -0 -0 -0 -0 -0 -0 -0 -0 -0 0 -0 -0 0 -0 -0 0 0 -0 0 0 0 0 0 0 -0 -0 -0 0 -0 0 -0 -0 -0 -0 -0 -0
-0 -0 -0 -0 -0 -0 -0 -0 -0 -0 -0 -0 -0 -0 -0 -0 0 0 -0 0 0 -0 -0 0 0 0 0 0 0 0 -0 -0 -0 -0 -0 -0 -0 -0 -0 -0 -0 -0 -0
-0 -0 -0 -0 -0 -0 -0 -0 -0 0 -0 -0 -0 -0 -0 -0 -0 0 0 0 -0 -0 0 0 0 0 0 0 0 0 -0 -0 -0 -0 0 -0 -0 -0 -0 -0 -0 -0 -0
-0 -0 -0 -0 -0 -0 -0 -0 -0 -0 0 -0 -0 -0 -0 -0 0 0 0 0 0 0 0 0 0 0 0 0 0 0 0 0 -0 -0 -0 0 -0 -0 -0 -0 -0 -0 -0
0 -0 -0 -0 -0 -0 -0 -0 -0 0 0 -0 -0 -0 -0 0 -0 -0 0 -0 0 -0 0 0 0 0 0 0 0 0 -0 -0 -0 0 0 0 -0 -0 -0 -0 -0 -0 0
-0 -0 0 -0 -0 0 0 0 0 -0 -0 -0 -0 -0 0 -0 -0 -0 0 -0 -0 0 0 -0 0 0 0 0 0 0 -0 0 -0 0 0 -0 -0 -0 -0 -0 -0 0 0
-0 -0 -0 0 0 -0 0 0 0 0 0 -0 -0 -0 -0 0 -0 0 -0 -0 -0 0 -0 -0 -0 0 0 0 0 0 0 0 0 0 0 -0 -0 -0 -0 -0 -0 0 0
-0 0 0 0 0 0 0 0 0 0 0 0 -0 -0 0 0 -0 -0 -0 0 -0 -0 0 -0 0 0 0 0 0 0 0 0 0 0 0 -0 0 0 0 -0 -0 0 -0
-0 -0 0 0 0 0 0 0 0 0 0 0 0 0 0 0 -0 -0 -0 -0 -0 -0 -0 0 0 0 0 -0 -0 0 0 0 0 0 0 -0 0 0 0 -0 0 0 0
-0 -0 -0 -0 0 0 0 0 0 0 0 0 0 -0 0 0 0 -0 0 -0 0 -0 -0 -0 0 0 -0 -0 -0 0 0 0 0 0 -0 -0 0 0 0 0 0 0 0
-0 -0 -0 -0 -0 0 0 0 0 0 0 -0 0 -0 0 0 0 -0 -0 0 -0 -0 0 0 -0 -0 0 0 0 0 0 -0 0 -0 -0 0 0 0 0 0 0 0 0
-0 -0 -0 -0 -0 -0 0 0 0 -0 0 0 0 0 0 0 0 -0 -0 0 0 0 0 0 -0 0 0 -0 0 0 0 0 0 -0 0 -0 -0 -0 0 0 0 0 0
-0 -0 -0 -0 -0 -0 -0 0 0 -0 -0 -0 -0 -0 -0 0 0 0 -0 -0 0 0 0 0 0 0 0 -0 0 0 0 0 0 0 0 0 0 0 0 -0 0 0 0
-0 -0 -0 -0 -0 -0 -0 0 0 0 0 0 0 0 -0 0 0 0 0 -0 0 0 0 0 0 0 -0 0 0 0 0 0 0 0 0 -0 -0 -0 0 -0 0 0 0
-0 -0 -0 -0 -0 -0 -0 0 0 0 0 -0 0 0 0 0 0 0 -0 0 0 -0 0 0 0 -0 0 0 0 0 0 0 0 0 0 0 0 -0 -0 -0 0 0 -0
-0 -0 -0 -0 -0 -0 0 0 0 0 0 0 0 0 0 0 0 0 0 0 -0 0 0 0 -0 -0 0 0 0 0 0 0 -0 0 0 0 0 0 -0 -0 0 0 0
-0 -0 -0 -0 -0 -0 0 0 0 0 0 0 0 0 0 0 1 1 -0 -0 -0 0 0 0 0 0 0 -0 -0 0 -0 -0 0 0 0 0 0 0 0 0 -0 -0 -0
-0 -0 -0 -0 -0 -0 0 -0 0 0 0 0 0 0 0 0 1 0 0 -0 -0 0 0 0 0 0 -0 -0 0 0 -0 0 0 0 0 0 0 0 0 0 0 -0 -0
-1 -0 -0 -0 -0 0 -0 -0 -0 0 0 0 0 0 -0 0 1 0 0 0 -0 -0 -0 0 0 0 -0 0 -0 -0 -0 0 0 0 -0 0 -0 0 0 0 0 -0 -0
-1 -1 -0 -0 -0 0 -0 -0 -0 -0 0 -0 0 0 0 0 0 0 0 0 0 0 -0 0 0 -0 -0 0 -0 -0 -0 -0 0 0 0 -0 0 -0 -0 0 0 -0 -0
-0 -1 -0 -0 -0 0 -0 -0 -0 -0 -0 0 0 0 -0 0 0 0 0 0 0 0 0 -0 -0 -0 -0 -0 0 0 0 0 0 0 0 0 0 0 0 -0 -0 -0 -0
Wind_Speed_500mb
25 32 34 33 32 32 33 29 28 28 26 25 26 25 27 31 29 30 30 31 31 28 23 22 21 29 28 23 13 5 2 6 5 11 19 18 12 11 14 17 22 14 13
33 32 34 29 29 32 30 29 28 26 22 21 23 26 26 30 29 23 21 22 19 18 16 16 15 18 17 12 9 2 4 10 15 17 19 13 9 6 14 22 28 26 23
33 33 31 29 26 29 27 28 25 20 20 19 20 23 26 24 20 15 11 11 11 12 13 13 14 14 10 8 7 4 11 18 16 22 26 12 8 9 15 11 13 27 30
34 32 29 28 27 28 26 23 22 20 19 20 23 22 21 18 16 5 9 11 11 10 13 14 13 12 10 9 8 10 18 28 18 21 17 16 19 14 17 14 14 20 27
34 29 30 27 25 24 22 21 21 21 20 19 18 17 17 16 14 14 16 18 17 14 13 13 15 14 12 13 14 19 27 30 18 6 29 25 27 20 22 21 17 21 23
29 24 29 25 25 23 21 20 18 18 18 16 15 12 9 11 10 13 18 16 15 15 14 14 15 17 13 13 9 11 16 24 21 15 30 18 23 15 18 22 22 24 21
38 22 23 24 24 24 22 19 17 16 16 15 12 9 5 11 23 15 16 12 12 12 13 14 17 16 13 10 7 12 19 20 17 8 20 11 4 11 18 21 20 18 18
30 22 27 26 25 22 20 18 17 16 15 12 10 10 18 23 19 17 14 10 10 10 13 17 18 15 10 12 15 9 16 14 18 16 35 13 6 15 17 17 19 18 16
24 32 17 26 26 25 23 19 17 15 13 11 10 17 25 13 18 14 15 9 9 11 13 15 15 13 11 11 8 3 12 12 8 8 12 8 7 10 13 14 17 15 15
27 21 18 21 20 25 24 20 20 17 16 14 12 17 14 18 17 13 14 8 9 11 10 11 12 12 13 10 6 7 20 20 9 21 14 12 8 11 13 12 13 12 11
28 23 28 20 17 21 20 24 24 21 18 15 14 16 18 19 18 12 8 3 5 9 10 8 7 8 10 7 5 10 15 11 7 14 19 11 7 12 15 12 12 11 11
30 36 18 20 23 23 26 24 26 23 20 18 20 18 30 26 20 16 6 7 9 12 11 13 18 14 18 14 13 15 19 20 14 14 14 13 8 12 13 13 11 11 10
22 24 22 27 24 31 32 31 30 29 28 20 23 25 29 26 18 21 16 13 12 12 8 7 5 9 8 5 13 9 9 11 28 11 18 9 10 13 12 12 11 11 10
19 20 22 26 42 42 33 33 32 31 35 21 30 26 31 28 23 28 31 17 16 16 10 7 4 7 1 21 17 20 13 5 20 15 18 9 15 15 12 13 13 12 11
19 16 13 15 18 28 30 34 34 34 32 30 28 33 34 27 18 4 24 18 16 26 9 11 7 17 22 16 8 12 27 19 17 13 18 13 17 18 16 15 14 13 13
11 19 17 11 14 22 30 38 39 30 33 30 29 39 29 20 20 17 17 19 19 12 15 18 15 8 32 20 11 23 32 20 18 15 23 20 19 19 18 17 17 16 18
22 19 5 10 14 20 28 34 29 28 21 28 28 33 24 21 17 11 21 17 14 9 10 13 10 11 31 22 20 21 24 12 18 10 12 21 22 17 17 18 19 19 20
26 14 20 10 13 23 31 36 38 35 29 25 22 29 19 22 8 21 18 12 12 9 18 11 3 9 8 22 12 25 18 14 25 26 6 7 13 20 16 14 15 16 15
25 25 12 7 10 16 36 39 33 40 32 38 34 22 19 20 9 30 7 15 9 9 8 4 6 19 17 12 19 16 9 17 15 21 22 11 5 3 14 13 13 12 11
29 26 17 12 15 21 42 46 29 37 23 28 34 22 19 17 11 31 13 9 9 19 9 7 16 25 21 29 11 10 12 7 26 15 12 20 22 9 6 9 15 16 8
28 28 20 16 21 27 43 40 32 37 18 11 18 11 21 8 12 23 21 10 23 12 8 6 15 22 17 6 9 10 11 6 12 11 7 21 9 19 12 6 9 3 6
39 34 30 22 29 32 23 26 31 19 14 18 8 14 16 5 14 7 3 32 15 3 5 7 20 18 23 20 25 12 10 13 12 9 17 17 8 22 21 16 5 9 1
43 41 34 31 34 26 27 24 24 21 21 27 26 15 22 17 3 3 14 17 1 22 4 11 14 17 16 17 23 42 19 22 10 14 11 11 14 14 11 15 16 19 18
52 43 38 38 34 40 29 22 24 19 16 25 33 18 9 11 8 6 9 6 5 6 6 9 3 15 18 10 6 16 19 9 4 15 19 3 24 11 16 16 17 13 22
54 49 41 39 36 39 37 35 31 31 21 14 20 31 23 16 23 15 10 15 10 9 11 11 2 6 9 7 10 7 35 35 20 18 16 20 13 25 24 21 12 11 7
53 47 45 37 41 43 42 42 37 32 27 18 16 36 23 19 13 17 14 18 16 11 6 11 4 4 9 5 5 7 12 11 11 11 12 13 6 19 26 19 21 14 15
Wind_Direction_500mb
138 139 134 141 134 127 127 128 124 127 115 97 98 102 104 105 113 116 117 120 129 142 147 148 144 159 166 171 187 293 27 137 154 186 186 171 153 140 152 145 154 142 138
145 139 133 136 133 132 129 125 125 124 116 106 98 100 108 113 110 108 118 125 134 144 152 161 166 175 186 217 263 286 104 94 89 133 138 127 129 152 163 186 170 181 158
142 143 138 135 135 130 129 128 130 128 118 113 108 111 112 116 117 105 130 132 137 146 147 165 180 190 194 206 221 158 108 108 115 123 146 132 169 153 144 189 182 163 164
150 148 147 145 140 134 130 130 131 127 116 112 113 113 114 117 114 75 125 134 153 151 153 168 170 169 169 182 174 131 114 115 110 154 145 88 163 146 137 154 171 164 178
137 161 149 150 151 145 143 137 134 127 117 115 112 111 113 111 83 97 110 114 131 140 145 152 153 145 142 127 125 116 109 123 122 148 127 113 136 160 135 134 158 153 148
151 169 154 149 146 150 145 142 138 129 126 123 117 111 105 98 97 103 105 113 122 137 143 146 146 147 147 137 138 144 119 119 93 58 35 77 131 160 145 147 143 146 149
152 174 168 164 154 148 150 145 141 132 131 126 118 112 98 137 140 134 110 114 118 132 144 152 154 158 146 154 146 106 112 109 83 83 125 139 69 139 148 152 147 150 146
161 167 179 179 166 161 159 154 147 144 144 133 117 100 101 126 148 137 121 108 116 141 153 158 161 158 155 144 129 117 117 124 151 98 131 109 126 151 140 138 142 148 142
158 156 178 190 177 175 177 171 158 159 154 144 131 128 134 147 160 141 125 128 143 156 152 160 173 174 179 156 132 105 132 132 166 134 105 97 156 145 137 137 140 143 142
168 175 161 180 189 184 183 177 174 175 168 160 152 145 150 152 148 139 130 124 151 139 136 149 172 178 185 178 147 104 126 116 109 53 155 127 128 130 130 137 126 126 135
161 165 163 183 199 177 191 187 179 177 170 165 162 163 166 152 154 126 83 129 156 133 113 99 132 170 175 165 143 130 111 108 159 109 111 89 114 116 114 116 116 132 138
200 193 186 172 194 206 190 188 180 177 161 176 170 185 164 163 159 157 187 199 161 142 92 102 101 102 157 105 111 122 99 101 185 155 54 48 118 109 110 104 111 119 137
169 196 210 201 184 201 206 190 180 172 170 177 178 178 171 167 149 155 205 199 158 203 177 113 123 90 98 245 221 60 129 180 140 187 39 63 112 116 114 117 124 129 134
177 193 183 211 217 218 203 194 183 187 186 187 184 187 183 179 186 214 220 184 185 162 163 191 121 122 184 223 167 110 109 76 147 146 57 99 121 118 120 128 127 130 127
160 173 196 212 212 200 198 188 178 196 187 185 211 188 188 189 195 223 195 197 171 183 137 182 168 191 186 162 172 171 109 120 143 137 71 102 123 124 129 132 130 124 117
151 156 184 207 229 197 192 186 184 194 196 213 201 183 191 190 172 202 316 84 120 156 190 157 212 161 129 142 123 121 130 143 119 85 80 89 105 121 130 129 126 125 125
142 146 165 208 184 174 175 181 181 166 183 172 186 187 205 192 189 305 114 89 100 149 116 112 139 127 117 159 174 126 116 157 132 108 87 73 90 104 122 130 133 135 132
146 147 147 149 158 171 167 161 149 150 163 165 205 195 192 191 199 186 186 136 82 41 40 44 14 193 127 126 133 155 134 116 118 129 114 86 81 85 111 128 133 137 131
161 143 170 146 151 145 165 161 159 161 178 179 192 190 197 187 159 253 259 144 167 116 15 134 51 47 94 116 129 115 112 149 113 128 152 124 72 101 83 104 134 137 140
154 149 180 171 168 164 164 166 153 169 172 194 191 193 148 125 156 159 116 180 202 148 138 125 96 85 51 90 125 133 152 147 159 141 114 143 163 192 172 118 118 95 94
164 163 177 164 157 164 160 166 162 164 154 183 206 218 162 111 193 244 277 146 116 105 116 131 72 73 89 49 11 140 118 178 126 152 90 151 138 166 201 159 175 192 69
172 174 178 193 153 155 171 161 145 160 199 180 247 246 187 257 236 48 101 54 88 70 346 65 103 94 60 64 59 39 36 188 173 169 170 175 154 171 217 154 171 179 81
177 179 182 197 163 148 158 154 162 174 197 205 209 213 217 217 105 46 356 10 182 37 340 46 84 66 74 69 57 91 1 294 195 160 170 187 175 227 179 175 195 193 202
181 183 185 199 186 170 180 177 169 186 206 179 184 208 241 186 154 245 244 236 210 101 310 36 25 79 47 79 91 78 115 165 167 185 171 146 186 173 184 223 177 228 185
178 185 192 199 202 183 181 185 183 192 207 225 213 206 214 206 203 197 240 274 244 172 234 244 114 80 83 26 47 69 158 114 83 115 38 229 208 177 192 212 198 228 239
174 178 191 198 200 191 196 194 194 194 198 221 192 208 206 211 237 217 211 260 265 227 292 312 329 286 220 234 274 77 350 346 330 305 132 181 120 167 188 171 201 223 229
Wind_Speed_850mb
25 32 34 33 32 32 33 29 28 28 26 25 26 25 27 31 29 30 30 31 31 28 23 22 21 29 28 23 13 5 2 6 5 11 19 18 12 11 14 17 22 14 13
33 32 34 29 29 32 30 29 28 26 22 21 23 26 26 30 29 23 21 22 19 18 16 16 15 18 17 12 9 2 4 10 15 17 19 13 9 6 14 22 28 26 23
33 33 31 29 26 29 27 28 25 20 20 19 20 23 26 24 20 15 11 11 11 12 13 13 14 14 10 8 7 4 11 18 16 22 26 12 8 9 15 11 13 27 30
34 32 29 28 27 28 26 23 22 20 19 20 23 22 21 18 16 5 9 11 11 10 13 14 13 12 10 9 8 10 18 28 18 21 17 16 19 14 17 14 14 20 27
34 29 30 27 25 24 22 21 21 21 20 19 18 17 17 16 14 14 16 18 17 14 13 13 15 14 12 13 14 19 27 30 18 6 29 25 27 20 22 21 17 21 23
29 24 29 25 25 23 21 20 18 18 18 16 15 12 9 11 10 13 18 16 15 15 14 14 15 17 13 13 9 11 16 24 21 15 30 18 23 15 18 22 22 24 21
38 22 23 24 24 24 22 19 17 16 16 15 12 9 5 11 23 15 16 12 12 12 13 14 17 16 13 10 7 12 19 20 17 8 20 11 4 11 18 21 20 18 18
30 22 27 26 25 22 20 18 17 16 15 12 10 10 18 23 19 17 14 10 10 10 13 17 18 15 10 12 15 9 16 14 18 16 35 13 6 15 17 17 19 18 16
24 32 17 26 26 25 23 19 17 15 13 11 10 17 25 13 18 14 15 9 9 11 13 15 15 13 11 11 8 3 12 12 8 8 12 8 7 10 13 14 17 15 15
27 21 18 21 20 25 24 20 20 17 16 14 12 17 14 18 17 13 14 8 9 11 10 11 12 12 13 10 6 7 20 20 9 21 14 12 8 11 13 12 13 12 11
28 23 28 20 17 21 20 24 24 21 18 15 14 16 18 19 18 12 8 3 5 9 10 8 7 8 10 7 5 10 15 11 7 14 19 11 7 12 15 12 12 11 11
30 36 18 20 23 23 26 24 26 23 20 18 20 18 30 26 20 16 6 7 9 12 11 13 18 14 18 14 13 15 19 20 14 14 14 13 8 12 13 13 11 11 10
22 24 22 27 24 31 32 31 30 29 28 20 23 25 29 26 18 21 16 13 12 12 8 7 5 9 8 5 13 9 9 11 28 11 18 9 10 13 12 12 11 11 10
19 20 22 26 42 42 33 33 32 31 35 21 30 26 31 28 23 28 31 17 16 16 10 7 4 7 1 21 17 20 13 5 20 15 18 9 15 15 12 13 13 12 11
19 16 13 15 18 28 30 34 34 34 32 30 28 33 34 27 18 4 24 18 16 26 9 11 7 17 22 16 8 12 27 19 17 13 18 13 17 18 16 15 14 13 13
11 19 17 11 14 22 30 38 39 30 33 30 29 39 29 20 20 17 17 19 19 12 15 18 15 8 32 20 11 23 32 20 18 15 23 20 19 19 18 17 17 16 18
22 19 5 10 14 20 28 34 29 28 21 28 28 33 24 21 17 11 21 17 14 9 10 13 10 11 31 22 20 21 24 12 18 10 12 21 22 17 17 18 19 19 20
26 14 20 10 13 23 31 36 38 35 29 25 22 29 19 22 8 21 18 12 12 9 18 11 3 9 8 22 12 25 18 14 25 26 6 7 13 20 16 14 15 16 15
25 25 12 7 10 16 36 39 33 40 32 38 34 22 19 20 9 30 7 15 9 9 8 4 6 19 17 12 19 16 9 17 15 21 22 11 5 3 14 13 13 12 11
29 26 17 12 15 21 42 46 29 37 23 28 34 22 19 17 11 31 13 9 9 19 9 7 16 25 21 29 11 10 12 7 26 15 12 20 22 9 6 9 15 16 8
28 28 20 16 21 27 43 40 32 37 18 11 18 11 21 8 12 23 21 10 23 12 8 6 15 22 17 6 9 10 11 6 12 11 7 21 9 19 12 6 9 3 6
39 34 30 22 29 32 23 26 31 19 14 18 8 14 16 5 14 7 3 32 15 3 5 7 20 18 23 20 25 12 10 13 12 9 17 17 8 22 21 16 5 9 1
43 41 34 31 34 26 27 24 24 21 21 27 26 15 22 17 3 3 14 17 1 22 4 11 14 17 16 17 23 42 19 22 10 14 11 11 14 14 11 15 16 19 18
52 43 38 38 34 40 29 22 24 19 16 25 33 18 9 11 8 6 9 6 5 6 6 9 3 15 18 10 6 16 19 9 4 15 19 3 24 11 16 16 17 13 22
54 49 41 39 36 39 37 35 31 31 21 14 20 31 23 16 23 15 10 15 10 9 11 11 2 6 9 7 10 7 35 35 20 18 16 20 13 25 24 21 12 11 7
53 47 45 37 41 43 42 42 37 32 27 18 16 36 23 19 13 17 14 18 16 11 6 11 4 4 9 5 5 7 12 11 11 11 12 13 6 19 26 19 21 14 15
Wind_Direction_850mb
138 139 134 141 134 127 127 128 124 127 115 97 98 102 104 105 113 116 117 120 129 142 147 148 144 159 166 171 187 293 27 137 154 186 186 171 153 140 152 145 154 142 138
145 139 133 136 133 132 129 125 125 124 116 106 98 100 108 113 110 108 118 125 134 144 152 161 166 175 186 217 263 286 104 94 89 133 138 127 129 152 163 186 170 181 158
142 143 138 135 135 130 129 128 130 128 118 113 108 111 112 116 117 105 130 132 137 146 147 165 180 190 194 206 221 158 108 108 115 123 146 132 169 153 144 189 182 163 164
150 148 147 145 140 134 130 130 131 127 116 112 113 113 114 117 114 75 125 134 153 151 153 168 170 169 169 182 174 131 114 115 110 154 145 88 163 146 137 154 171 164 178
137 161 149 150 151 145 143 137 134 127 117 115 112 111 113 111 83 97 110 114 131 140 145 152 153 145 142 127 125 116 109 123 122 148 127 113 136 160 135 134 158 153 148
151 169 154 149 146 150 145 142 138 129 126 123 117 111 105 98 97 103 105 113 122 137 143 146 146 147 147 137 138 144 119 119 93 58 35 77 131 160 145 147 143 146 149
152 174 168 164 154 148 150 145 141 132 131 126 118 112 98 137 140 134 110 114 118 132 144 152 154 158 146 154 146 106 112 109 83 83 125 139 69 139 148 152 147 150 146
161 167 179 179 166 161 159 154 147 144 144 133 117 100 101 126 148 137 121 108 116 141 153 158 161 158 155 144 129 117 117 124 151 98 131 109 126 151 140 138 142 148 142
158 156 178 190 177 175 177 171 158 159 154 144 131 128 134 147 160 141 125 128 143 156 152 160 173 174 179 156 132 105 132 132 166 134 105 97 156 145 137 137 140 143 142
168 175 161 180 189 184 183 177 174 175 168 160 152 145 150 152 148 139 130 124 151 139 136 149 172 178 185 178 147 104 126 116 109 53 155 127 128 130 130 137 126 126 135
161 165 163 183 199 177 191 187 179 177 170 165 162 163 166 152 154 126 83 129 156 133 113 99 132 170 175 165 143 130 111 108 159 109 111 89 114 116 114 116 116 132 138
200 193 186 172 194 206 190 188 180 177 161 176 170 185 164 163 159 157 187 199 161 142 92 102 101 102 157 105 111 122 99 101 185 155 54 48 118 109 110 104 111 119 137
169 196 210 201 184 201 206 190 180 172 170 177 178 178 171 167 149 155 205 199 158 203 177 113 123 90 98 245 221 60 129 180 140 187 39 63 112 116 114 117 124 129 134
177 193 183 211 217 218 203 194 183 187 186 187 184 187 183 179 186 214 220 184 185 162 163 191 121 122 184 223 167 110 109 76 147 146 57 99 121 118 120 128 127 130 127
160 173 196 212 212 200 198 188 178 196 187 185 211 188 188 189 195 223 195 197 171 183 137 182 168 191 186 162 172 171 109 120 143 137 71 102 123 124 129 132 130 124 117
151 156 184 207 229 197 192 186 184 194 196 213 201 183 191 190 172 202 316 84 120 156 190 157 212 161 129 142 123 121 130 143 119 85 80 89 105 121 130 129 126 125 125
142 146 165 208 184 174 175 181 181 166 183 172 186 187 205 192 189 305 114 89 100 149 116 112 139 127 117 159 174 126 116 157 132 108 87 73 90 104 122 130 133 135 132
146 147 147 149 158 171 167 161 149 150 163 165 205 195 192 191 199 186 186 136 82 41 40 44 14 193 127 126 133 155 134 116 118 129 114 86 81 85 111 128 133 137 131
161 143 170 146 151 145 165 161 159 161 178 179 192 190 197 187 159 253 259 144 167 116 15 134 51 47 94 116 129 115 112 149 113 128 152 124 72 101 83 104 134 137 140
154 149 180 171 168 164 164 166 153 169 172 194 191 193 148 125 156 159 116 180 202 148 138 125 96 85 51 90 125 133 152 147 159 141 114 143 163 192 172 118 118 95 94
164 163 177 164 157 164 160 166 162 164 154 183 206 218 162 111 193 244 277 146 116 105 116 131 72 73 89 49 11 140 118 178 126 152 90 151 138 166 201 159 175 192 69
172 174 178 193 153 155 171 161 145 160 199 180 247 246 187 257 236 48 101 54 88 70 346 65 103 94 60 64 59 39 36 188 173 169 170 175 154 171 217 154 171 179 81
177 179 182 197 163 148 158 154 162 174 197 205 209 213 217 217 105 46 356 10 182 37 340 46 84 66 74 69 57 91 1 294 195 160 170 187 175 227 179 175 195 193 202
181 183 185 199 186 170 180 177 169 186 206 179 184 208 241 186 154 245 244 236 210 101 310 36 25 79 47 79 91 78 115 165 167 185 171 146 186 173 184 223 177 228 185
178 185 192 199 202 183 181 185 183 192 207 225 213 206 214 206 203 197 240 274 244 172 234 244 114 80 83 26 47 69 158 114 83 115 38 229 208 177 192 212 198 228 239
174 178 191 198 200 191 196 194 194 194 198 221 192 208 206 211 237 217 211 260 265 227 292 312 329 286 220 234 274 77 350 346 330 305 132 181 120 167 188 171 201 223 229